Regional Weather Roundup
Issued by NWS Charleston, SC

Current Version | Previous Version | Graphics & Text | Print | Product List | Glossary On
Versions: 1 2 3 4 5 6 7 8 9 10 11 12 13 14 15 16 17 18 19 20 21 22 23 24 25 26 27 28 29 30 31 32 33 34 35 36 37 38 39 40 41 42 43 44 45 46 47 48
000 ASUS42 KCHS 290512 RWRCHS REGIONAL WEATHER ROUNDUP NATIONAL WEATHER SERVICE CHARLESTON SC 100 AM EDT WED MAR 29 2017 NOTE: "FAIR" INDICATES FEW OR NO CLOUDS BELOW 12,000 FEET WITH NO SIGNIFICANT WEATHER AND/OR OBSTRUCTIONS TO VISIBILITY. NOT ALL STATIONS ARE QUALITY CONTROLLED. USE DATA WITH CAUTION... ESPECIALLY DEWPOINT OBSERVATIONS. SCZ027-030-031-034>040-042>050-290600- ...SOUTHEAST SOUTH CAROLINA... CITY SKY/WX TMP DP RH WIND PRES REMARKS N CHARLESTON CLEAR 65 61 87 SW5 29.96S WATERFRONT PRK N/A 66 63 90 SW5 29.95S JOHNS ISLAND FAIR 66 63 88 SW7 29.97S PINOPOLIS N/A 66 64 94 SW6 29.86S MONCKS CORNER FAIR 63 61 94 W3 29.95S SUMMERVILLE FAIR 63 61 94 CALM 29.97S BEAUFORT MCAS PTCLDY 65 64 97 SW6 29.97S BEAUFORT ARPT FAIR 66 63 88 SW5 29.97S HILTON HEAD IS CLEAR 70 64 83 S6 29.98F WALTERBORO CLEAR 63 63 100 CALM 29.97F ALLENDALE FAIR 64 59 82 CALM 29.96S ...SOUTHERN MIDLANDS AND PEE DEE... CITY SKY/WX TMP DP RH WIND PRES REMARKS GEORGETOWN FAIR 61 61 100 W7 29.95S KINGSTREE FAIR 63 59 88 CALM 29.95F ORANGEBURG CLEAR 62 58 86 S3 29.96S BARNWELL FAIR 63 59 88 CALM 29.97S AIKEN FAIR 57 54 88 CALM 30.01S MANNING FAIR 63 59 88 CALM 29.96S COLUMBIA CLEAR 66 56 70 N3 29.96S SUMTER CLEAR 67 55 66 N7 29.95R FLORENCE CLEAR 67 55 65 N9 29.96R MYRTLE BEACH CLEAR 66 63 88 W7 29.95F N MYRTLE BEACH MOCLDY 63 62 97 CALM 29.93F $$ GAZ063-065-086>088-099>101-113>116-118-119-134>141-150-290600- ...SOUTHEAST GEORGIA... CITY SKY/WX TMP DP RH WIND PRES REMARKS SAVANNAH ARPT CLEAR 67 60 78 CALM 29.98F HUNTER AAF CLEAR 66 65 94 CALM 29.96S FORT STEWART CLEAR 64 60 86 CALM 29.96F STATESBORO CLEAR 65 64 99 CALM 29.98S SYLVANIA CLEAR N/A N/A N/A CALM 29.99S CLAXTON FAIR N/A N/A N/A CALM 29.99S ...CSRA...CENTRAL AND FAR SOUTHEAST GEORGIA... CITY SKY/WX TMP DP RH WIND PRES REMARKS THOMSON CLEAR 59 56 89 CALM 30.03S AUGUSTA-BUSH CLEAR 62 58 86 CALM 29.97S AUGUSTA-DANIEL CLEAR 71 54 54 NW5 29.98S SWAINSBORO MOCLDY 63 61 94 CALM 29.99F VIDALIA PTCLDY 68 61 77 SW5 29.99S EASTMAN FAIR 66 55 66 CALM 30.02S HAZLEHURST FAIR 71 65 83 SW5 29.99S ALMA CLEAR 68 62 81 W3 30.00S WAYCROSS CLEAR 68 65 89 SW5 30.00F JESUP FAIR 64 59 82 CALM 30.00S BAXLEY FAIR 70 68 94 W3 29.99F BRUNSWICK CLEAR 64 64 100 CALM 30.00S SAINT SIMONS CLEAR 70 62 76 SW8 29.99F $$ SCZ027-028-034-036>038-045-046-048>050-GAZ119-141-290600- ...LAKE AND SUPPLEMENTAL COASTAL OBSERVATIONS... STATION/POSITION TIME TEMP WIND PRES WAVE SWELL AIR SEA DIR/SP/G HT/PER HT/PER/DIR (UTC) (F) (DEG/KT/KT) (MB) (FT/S) (FT/S/D) WINYAH BAY NOT AVBL LAKE MURRAY 0420 66 CALM / 2 1014.6 ACE BASIN NERRS NOT AVBL FORT PULASKI 0448 68 65 230/ 4/ 5 1015.5F SAPELO ISLAND 0400 67 CALM 1016.0 $$ ANZ835-935-AMZ111-154-330-350-352-354-370-450-454-472-290600- ...C-MAN AND BUOY OBSERVATIONS... STATION/POSITION TIME TEMP WIND PRES WAVE SWELL AIR SEA DIR/SP/G HT/PER HT/PER/DIR (UTC) (F) (DEG/KT/KT) (MB) (FT/S) (FT/S/D) BUOY 41004 0350 70 71 240/ 14/ 16 1014.2 5/11 5/130/11 BUOY 41008 0350 66 64 220/ 10/ 12 1015.5 3/11 3/130/11 FOLLY BEACH CMAN 0400 65 230/ 9/ 11 1015.3S CAPERS NEARSHORE NOT AVBL FRIPP NEARSHORE 0408 66 63 230/ 12/ 14 1015.0S STATION/POSITION TIME TEMP WIND PRES WAVE SWELL AIR SEA DIR/SP/G HT/PER HT/PER/DIR (UTC) (F) (DEG/KT/KT) (MB) (FT/S) (FT/S/D) 5E ST. MARYS GA 0430 67 N/A 4/11 2/110/11 FRYING PAN BUOY 0450 68 71 280/ 16/ 19 1013.9R 5/11 3/150/11 BUOY 41025 0450 70 74 280/ 14/ 17 1012.5R 5/10 3/140/10 CAPE LOOKOUT NC 0400 64 280/ 10/ 11 1012.9R BUOY 41002 0450 71 72 210/ 16/ 17 1015.0F 6/10 5/ 90/10 BUOY 41010 NOT AVBL ST AUGUSTINE FL 0500 69 69 230/ 5/ 6 1017.5R $$

USA.gov is the U.S. government's official web portal to all federal, state and local government web resources and services.